DW6119 Weather Reports


time (UTC)temp
C
wind
direction
speed
KPH
gust
KPH
rain 1hr
cm
rain 24hr
cm
rain mn
cm
humidity
%
barometer
mb
20260506113914 16 67 3.2 3.2 0.00 0.66 0.56 80 1009.8
20260506113416 16 265 1.6 8.0 0.00 0.66 0.56 82 1009.9
20260506112914 16 256 0.0 8.0 0.00 0.66 0.56 82 1010.2
20260506112414 16 251 1.6 8.0 0.00 0.66 0.56 82 1010.2
20260506111914 16 253 1.6 4.8 0.00 0.66 0.56 81 1010.2
20260506111414 17 255 3.2 4.8 0.00 0.66 0.56 79 1010.5
20260506110915 17 264 0.0 1.6 0.03 0.69 0.56 76 1010.5
20260506110415 17 278 0.0 4.8 0.03 0.69 0.56 75 1010.5
20260506105915 16 303 1.6 4.8 0.03 0.69 0.56 74 1011.1
20260506105415 16 45 0.0 4.8 0.03 0.69 0.56 78 1010.8
20260506104914 16 37 0.0 4.8 0.03 0.69 0.56 82 1011.2
20260506104415 16 55 0.0 4.8 0.03 0.69 0.56 80 1011.2
20260506103416 16 48 1.6 4.8 0.03 0.71 0.56 82 1011.5
20260506102915 16 301 0.0 1.6 0.03 0.71 0.56 85 1011.5
20260506101916 15 32 1.6 1.6 0.03 0.76 0.56 88 1011.5
20260506101415 15 182 0.0 1.6 0.03 0.76 0.56 88 1011.5
20260506100915 15 18 0.0 3.2 0.00 0.76 0.53 90 1011.8
20260506095915 15 76 1.6 3.2 0.10 0.79 0.53 91 1011.9
20260506095415 15 82 0.0 3.2 0.13 0.79 0.53 90 1011.9
20260506094917 15 67 1.6 3.2 0.13 0.79 0.53 89 1011.5
20260506094414 15 60 0.0 1.6 0.13 0.79 0.53 88 1011.9
20260506093414 15 50 0.0 1.6 0.13 0.81 0.53 90 1011.9
20260506092914 15 54 0.0 1.6 0.13 0.81 0.53 91 1011.9
20260506092415 15 54 0.0 1.6 0.13 0.81 0.53 92 1011.9
20260506091415 14 193 0.0 3.2 0.13 0.81 0.53 93 1011.9
20260506090915 14 232 1.6 3.2 0.13 0.81 0.53 93 1011.9
20260506090414 14 91 0.0 3.2 0.10 0.81 0.51 92 1012.0
20260506085915 14 247 1.6 3.2 0.03 0.74 0.43 92 1011.9
20260506085414 14 233 1.6 1.6 0.00 0.71 0.41 92 1011.8
20260506084415 14 80 0.0 3.2 0.00 0.74 0.41 91 1011.9
20260506082914 14 67 0.0 1.6 0.00 0.76 0.41 91 1011.5
20260506082414 14 37 0.0 3.2 0.00 0.76 0.41 92 1011.9
20260506081915 14 49 0.0 3.2 0.00 0.79 0.41 92 1011.7
20260506081415 13 66 0.0 3.2 0.00 0.79 0.41 92 1011.9
20260506080914 14 76 0.0 3.2 0.00 0.79 0.41 94 1011.9
20260506073415 13 59 0.0 3.2 0.03 0.81 0.41 95 1011.9
20260506072915 13 107 0.0 1.6 0.05 0.81 0.41 95 1011.9
20260506072414 13 161 0.0 1.6 0.05 0.81 0.41 95 1012.0
20260506071416 13 161 0.0 0.0 0.10 0.81 0.41 96 1012.2
20260506070916 13 161 0.0 1.6 0.13 0.81 0.41 96 1011.9
20260506062415 13 66 1.6 1.6 0.36 0.76 0.36 95 1012.5
20260506061914 13 331 0.0 1.6 0.33 0.74 0.33 95 1012.9
20260506061415 12 80 0.0 1.6 0.30 0.71 0.30 95 1012.6
20260506060414 13 16 0.0 1.6 0.25 0.66 0.25 95 1012.9
20260506051414 12 70 0.0 1.6 0.00 0.41 0.00 94 1012.2
20260506050914 12 248 0.0 1.6 0.00 0.41 0.00 94 1012.3
20260506050415 12 244 0.0 1.6 0.00 0.41 0.00 94 1012.4
20260506044915 12 86 0.0 1.6 0.00 0.41 0.00 94 1012.2
20260506044415 12 247 0.0 3.2 0.00 0.41 0.00 94 1012.2
20260506043916 12 62 0.0 4.8 0.00 0.41 0.00 94 1012.2
20260506042914 12 184 0.0 4.8 0.00 0.41 0.00 95 1012.3
20260506042415 12 114 1.6 3.2 0.00 0.41 0.00 95 1012.2
20260506041914 12 126 1.6 3.2 0.00 0.41 0.00 95 1012.2
20260506041416 12 57 0.0 1.6 0.00 0.41 0.00 95 1012.2
20260506040915 12 66 0.0 3.2 0.00 0.41 0.00 95 1012.1
20260506040415 12 129 0.0 3.2 0.00 0.41 0.00 95 1012.0
20260506035914 12 111 1.6 3.2 0.00 0.41 0.00 95 1012.0
20260506035415 12 151 0.0 1.6 0.00 0.41 0.00 95 1012.1
20260506034914 12 165 0.0 1.6 0.00 0.41 0.00 95 1012.2
20260506034415 12 229 0.0 1.6 0.00 0.41 0.00 95 1012.2
20260506033914 12 229 0.0 1.6 0.00 0.41 0.00 95 1012.2
20260506032915 12 184 0.0 1.6 0.00 0.41 0.00 96 1012.2
20260506032416 12 241 0.0 1.6 0.00 0.41 0.00 96 1012.8
20260506031915 12 185 0.0 1.6 0.00 0.41 0.00 95 1012.5
20260506031414 12 76 0.0 1.6 0.00 0.41 0.00 95 1012.9
20260506030915 12 74 0.0 1.6 0.00 0.41 0.00 95 1012.9
20260506030414 12 87 0.0 1.6 0.00 0.41 0.00 95 1012.9
20260506025916 12 89 0.0 0.0 0.00 0.41 0.00 96 1012.6
20260506024940 12 80 0.0 0.0 0.00 0.41 0.00 96 1012.9
20260506024416 12 78 0.0 1.6 0.00 0.41 0.00 96 1012.9
20260506023915 12 53 0.0 1.6 0.00 0.41 0.00 96 1013.0
20260506023415 13 72 1.6 1.6 0.00 0.41 0.00 95 1013.2
20260506022915 12 144 0.0 0.0 0.00 0.41 0.00 95 1013.2
20260506022415 12 213 0.0 0.0 0.00 0.41 0.00 95 1013.1
20260506021417 12 258 0.0 1.6 0.00 0.41 0.00 95 1013.2
20260506020914 12 257 0.0 1.6 0.00 0.41 0.00 95 1012.9
20260506020414 12 248 0.0 1.6 0.00 0.41 0.00 95 1013.2
20260506015915 12 185 0.0 1.6 0.00 0.41 0.00 95 1013.0
20260506015415 12 99 0.0 1.6 0.00 0.41 0.00 95 1012.9
20260506014915 12 163 0.0 1.6 0.00 0.41 0.00 95 1013.2
20260506014415 12 180 0.0 1.6 0.00 0.41 0.00 95 1013.0
20260506013914 13 107 0.0 1.6 0.00 0.41 0.00 95 1013.1
20260506013415 13 159 0.0 1.6 0.00 0.41 0.00 95 1012.9
20260506012915 13 72 0.0 1.6 0.00 0.41 0.00 95 1013.2
20260506012414 13 146 0.0 0.0 0.00 0.41 0.00 95 1013.2
20260506011915 13 67 0.0 0.0 0.00 0.41 0.00 95 1013.0
20260506011417 13 67 0.0 1.6 0.00 0.41 0.00 95 1013.4
20260506010915 13 77 0.0 1.6 0.00 0.41 0.00 95 1013.5
20260506010414 13 114 0.0 0.0 0.00 0.41 0.00 95 1013.5
20260506005914 13 96 0.0 0.0 0.00 0.41 0.00 95 1013.5
20260506005414 13 93 0.0 1.6 0.00 0.41 0.00 95 1013.2
20260506004915 13 81 0.0 1.6 0.00 0.41 0.00 95 1013.3
20260506003914 13 245 0.0 1.6 0.00 0.41 0.00 95 1013.5
20260506003414 13 250 0.0 1.6 0.00 0.41 0.00 95 1013.5
20260506002914 13 47 0.0 1.6 0.00 0.41 0.00 95 1013.7
20260506002418 13 104 0.0 1.6 0.00 0.41 0.00 95 1013.5
20260506001915 13 92 0.0 1.6 0.00 0.41 0.00 95 1013.8
20260506000915 13 73 0.0 1.6 0.00 0.41 0.00 95 1013.6
20260506000416 13 78 0.0 1.6 0.00 0.41 0.00 95 1013.6
20260505235917 13 205 0.0 1.6 0.00 0.41 0.00 95 1013.9
20260505235415 13 245 0.0 1.6 0.00 0.41 0.00 95 1013.9
20260505234916 13 237 0.0 0.0 0.00 0.41 0.00 95 1013.7
20260505234415 13 228 0.0 0.0 0.00 0.41 0.00 95 1013.5
20260505233915 13 76 0.0 1.6 0.00 0.41 0.00 95 1013.9
20260505233414 13 76 0.0 1.6 0.00 0.41 0.00 95 1013.8
20260505232915 13 76 0.0 1.6 0.00 0.41 0.00 95 1013.9
20260505232415 13 74 0.0 1.6 0.00 0.41 0.00 95 1013.9
20260505231914 13 100 0.0 0.0 0.00 0.41 0.00 95 1014.2
20260505231415 13 100 0.0 0.0 0.00 0.41 0.00 95 1014.0
20260505230915 13 98 0.0 0.0 0.00 0.41 0.00 95 1014.1
20260505230415 13 78 0.0 0.0 0.00 0.41 0.00 95 1014.0
20260505225415 13 80 0.0 0.0 0.00 0.41 0.00 95 1014.2
20260505224915 13 80 0.0 1.6 0.00 0.41 0.00 95 1014.2
20260505224415 13 79 0.0 1.6 0.00 0.41 0.00 95 1013.9
20260505223915 13 139 0.0 1.6 0.00 0.41 0.00 95 1013.9
20260505223415 13 100 0.0 0.0 0.00 0.41 0.00 95 1014.0
20260505222915 13 67 0.0 1.6 0.00 0.41 0.00 95 1014.0
20260505222414 13 64 0.0 1.6 0.00 0.41 0.00 95 1013.9
20260505221914 13 70 0.0 0.0 0.00 0.41 0.00 95 1014.1
20260505221414 13 158 0.0 0.0 0.00 0.41 0.00 95 1014.2
20260505220916 13 75 0.0 0.0 0.00 0.41 0.00 95 1014.2
20260505220415 13 75 0.0 0.0 0.00 0.41 0.00 95 1014.2
20260505215916 13 74 0.0 0.0 0.00 0.41 0.41 95 1014.2
20260505215415 13 63 0.0 0.0 0.00 0.41 0.41 95 1014.2
20260505214915 13 61 0.0 0.0 0.00 0.41 0.41 95 1014.2
20260505214415 13 58 0.0 0.0 0.00 0.41 0.41 95 1014.2
20260505213915 13 57 0.0 0.0 0.00 0.41 0.41 95 1014.2
20260505212914 13 57 0.0 0.0 0.00 0.41 0.41 95 1014.6
20260505212414 13 53 0.0 0.0 0.00 0.41 0.41 95 1014.6
20260505211415 13 54 0.0 0.0 0.00 0.41 0.41 95 1014.6
20260505210914 13 56 0.0 0.0 0.00 0.41 0.41 95 1014.6
20260505210415 13 56 0.0 1.6 0.00 0.41 0.41 95 1014.6
20260505205415 13 51 0.0 1.6 0.00 0.41 0.41 95 1014.6
20260505204915 13 138 0.0 1.6 0.00 0.41 0.41 95 1014.6
20260505204415 13 216 0.0 1.6 0.00 0.41 0.41 95 1014.6
20260505203917 13 242 0.0 1.6 0.00 0.41 0.41 95 1014.6
20260505203415 13 237 0.0 1.6 0.00 0.41 0.41 95 1014.2
20260505202415 13 156 0.0 1.6 0.00 0.41 0.41 94 1014.6
20260505201915 13 149 0.0 0.0 0.00 0.41 0.41 94 1014.6
20260505201416 13 154 0.0 0.0 0.00 0.41 0.41 94 1014.6
20260505200916 13 97 0.0 0.0 0.00 0.41 0.41 94 1014.6
20260505195902 13 244 0.0 0.0 0.00 0.41 0.41 94 1014.6
20260505195402 13 141 0.0 1.6 0.00 0.41 0.41 94 1014.6
20260505194902 13 135 0.0 1.6 0.00 0.41 0.41 93 1014.8
20260505194404 13 212 0.0 1.6 0.00 0.41 0.41 93 1014.6
20260505193402 13 147 0.0 0.0 0.00 0.41 0.41 93 1014.6
20260505192903 13 168 0.0 0.0 0.00 0.41 0.41 93 1014.5
20260505191402 13 185 0.0 0.0 0.00 0.41 0.41 93 1014.2
20260505190902 13 160 0.0 0.0 0.00 0.41 0.41 93 1014.3
20260505190402 14 156 0.0 0.0 0.00 0.41 0.41 93 1014.2
20260505185902 14 177 0.0 0.0 0.00 0.41 0.41 92 1014.4
20260505184902 14 158 0.0 1.6 0.00 0.41 0.41 92 1014.4
20260505184402 13 256 0.0 1.6 0.00 0.41 0.41 92 1014.5
20260505183902 14 247 0.0 1.6 0.00 0.41 0.41 92 1014.5
20260505183402 14 214 0.0 1.6 0.00 0.41 0.41 92 1014.3
20260505182902 14 190 0.0 1.6 0.00 0.41 0.41 92 1014.2
20260505182402 14 250 0.0 1.6 0.00 0.41 0.41 92 1014.2
20260505181902 14 227 0.0 1.6 0.00 0.41 0.41 92 1014.2
20260505181403 14 81 0.0 1.6 0.00 0.41 0.41 92 1014.1
20260505180902 14 233 0.0 0.0 0.00 0.41 0.41 92 1014.0
20260505180403 14 217 0.0 1.6 0.00 0.41 0.41 92 1013.9
20260505175403 14 250 0.0 1.6 0.00 0.41 0.41 92 1013.9
20260505174902 14 106 0.0 0.0 0.00 0.41 0.41 93 1013.9
20260505173904 14 83 0.0 1.6 0.00 0.41 0.41 92 1013.9
20260505172903 14 212 0.0 1.6 0.00 0.41 0.41 92 1013.9
20260505172402 15 235 0.0 0.0 0.00 0.41 0.41 92 1013.9
20260505171901 15 167 0.0 0.0 0.00 0.41 0.41 91 1013.9
20260505170904 15 131 0.0 0.0 0.00 0.41 0.41 90 1013.9
20260505170403 14 61 0.0 0.0 0.03 0.41 0.41 90 1013.9
20260505165901 14 67 0.0 0.0 0.03 0.41 0.41 90 1013.9
20260505164902 14 97 0.0 0.0 0.05 0.41 0.41 91 1014.2
20260505164402 14 155 0.0 1.6 0.05 0.41 0.41 91 1014.0
20260505163903 14 127 0.0 1.6 0.05 0.41 0.41 90 1014.2
20260505163402 14 196 0.0 1.6 0.08 0.41 0.41 90 1014.2
20260505162902 14 236 0.0 0.0 0.08 0.41 0.41 90 1014.2
20260505161902 14 202 0.0 1.6 0.08 0.41 0.41 90 1014.3
20260505161402 14 220 0.0 1.6 0.08 0.41 0.41 90 1014.5
20260505160903 14 252 0.0 3.2 0.08 0.41 0.41 90 1014.5
20260505160404 14 258 0.0 3.2 0.05 0.38 0.38 90 1014.6
20260505152902 15 256 1.6 3.2 0.00 0.33 0.33 87 1014.2
20260505150903 15 245 1.6 4.8 0.00 0.33 0.33 86 1014.2
20260505150402 15 257 0.0 3.2 0.00 0.33 0.33 86 1014.2
20260505140402 15 247 0.0 3.2 0.00 0.33 0.33 84 1014.4
20260505124902 15 28 0.0 1.6 0.00 0.33 0.33 85 1015.2
20260505124402 15 248 1.6 1.6 0.00 0.33 0.33 84 1015.1
20260505123902 15 255 1.6 3.2 0.00 0.33 0.33 87 1015.2
20260505123403 15 255 1.6 3.2 0.03 0.33 0.33 88 1015.2
20260505122902 15 261 1.6 3.2 0.03 0.33 0.33 87 1015.2
20260505122404 15 256 0.0 3.2 0.03 0.33 0.33 86 1015.6
20260505121902 15 257 1.6 3.2 0.03 0.33 0.33 84 1015.4
20260505121402 15 300 0.0 1.6 0.03 0.33 0.33 86 1015.2
20260505120403 15 260 0.0 1.6 0.03 0.33 0.33 83 1015.2
20260505114902 15 30 0.0 3.2 0.05 0.33 0.33 82 1015.2
20260505114403 15 245 0.0 3.2 0.05 0.33 0.33 81 1015.2